Regional Weather Roundup
Issued by NWS

Home | Current Version | Previous Version | Graphics & Text | Print | Product List | Glossary On
Versions: 1 2 3 4 5 6 7 8 9 10 11 12 13 14 15 16 17 18 19 20 21 22 23 24 25 26 27 28 29 30 31 32 33 34 35 36 37 38 39 40 41 42 43 44 45 46 47 48 49 50
421
ASUS43 KLOT 260108
RWRIL

ILLINOIS REGIONAL WEATHER ROUNDUP
NATIONAL WEATHER SERVICE CHICAGO/ROMEOVILLE IL
800 PM CDT THU MAY 25 2017

NOTE: "FAIR" INDICATES FEW OR NO CLOUDS BELOW 12,000 FEET WITH NO
SIGNIFICANT WEATHER AND/OR OBSTRUCTIONS TO VISIBILITY.

* THESE STATIONS ARE NOT UNDER NWS QUALITY CONTROL. THEY ALSO MAY NOT
  REPORT WEATHER SUCH AS PRECIPITATION OR FOG.

ILZ001-002-007-009-015-016-024-260200-
NORTHWEST ILLINOIS

CITY           SKY/WX    TMP DP  RH WIND       PRES   REMARKS
MOLINE         CLEAR     66  54  65 E9        29.69R
STERLING*      CLEAR     65  59  81 CALM      29.72R
SAVANNA*       CLEAR     66  53  62 CALM      29.71S
$$

ILZ003-004-008-010-011-017-018-260200-
NORTH CENTRAL ILLINOIS

CITY           SKY/WX    TMP DP  RH WIND       PRES   REMARKS
ROCKFORD       PTCLDY    65  53  65 W6        29.72R
FREEPORT*      CLEAR     64  52  64 CALM      29.73R
ROCHELLE*      CLEAR     63  55  75 W6        29.72R
DE KALB*       CLEAR     64  55  73 W3        29.72R
PERU*          PTCLDY    64  55  74 CALM      29.73R
$$

ILZ005-006-012>014-019>023-260200-
NORTHEAST ILLINOIS

CITY           SKY/WX    TMP DP  RH WIND       PRES   REMARKS
CHICAGO-OHARE  PTCLDY    62  49  62 NE7       29.70R
CHICAGO-MIDWAY PTCLDY    62  50  64 N6        29.70R
AURORA         MOCLDY    65  56  72 W7        29.70R
LANSING*       CLEAR     56  52  86 NE6       29.71R
JOLIET*        CLOUDY    66  56  69 E6        29.71R
WAUKEGAN       CLEAR     57  51  80 N6        29.70R
DUPAGE AIRPORT MOCLDY    62  54  74 CALM      29.70R
KANKAKEE*      CLEAR     64  55  70 CALM      29.72R
WHEELING       CLEAR     59  51  75 NE3       29.71R
MORRIS*        CLEAR     64  55  72 CALM      29.71R
ROMEOVILLE*    PTCLDY    61  56  83 E3        29.71R
NORTHERLY ISL    N/A     58  49  72 N7          N/A
$$

LMZ740>746-260200-
SOUTHERN LAKE MICHIGAN

STATION/POSITION SKY/WX   TEMP    WIND        PRES    VSBY  WAVE
                          AIR SEA DIR/SP/G                  HT/PER
                          (F)     (DEG/KT/KT) (MB)    (MI)  (FT/S)
SOUTHERN BUOY              48 45  350/  8/ 10 1004.4          3/ 5
WILMETTE HARBOR            51 51                N/A           3/ 5
HARRISON CRIB              54     330/ 10/ 11   N/A
BURNHAM HARBOR             58     350/  8/ 11   N/A
CALUMET HARBOR             56     340/  5/  8 1005.4R
BURNS HARBOR               54     330/  1/  4 1006.4R
MICHIGAN CITY              51     310/  6/  9   N/A
MICHIGAN CITY 6N           50 51  250/  4/  6   N/A           3/ 5
ST. JOSEPH                 53 55  320/  4/  6 1005.4          3/ 5
$$

ILZ025>027-034>036-040-047-049-050-058-095>099-260200-
WEST-CENTRAL ILLINOIS

CITY           SKY/WX    TMP DP  RH WIND       PRES   REMARKS
QUINCY         CLEAR     69  51  52 S6        29.70R
GALESBURG*     CLEAR     66  53  63 S5        29.70R
MACOMB*        CLEAR     68  56  65 S3        29.73R
JACKSONVILLE*  CLEAR     69  53  57 CALM      29.71S
PITTSFIELD*    CLEAR     69  55  61 CALM      29.72S
$$

ILZ028>032-037-038-041>044-048-051>054-059>061-260200-
CENTRAL ILLINOIS

CITY           SKY/WX    TMP DP  RH WIND       PRES   REMARKS
PONTIAC        CLEAR     64  58  82 W3        29.74R
BLOOMINGTON    CLEAR     62  55  77 NE7       29.74R
DECATUR        PTCLDY    68  53  58 W3        29.72R
PEORIA         CLEAR     66  58  75 NE3       29.72R
LACON*         CLEAR     63  57  79 CALM      29.72R
LINCOLN*       CLEAR     70  54  58 CALM      29.72R
SPRINGFIELD    PTCLDY    71  57  61 W3        29.72R
TAYLORVILLE    CLEAR     68  54  60 W3        29.73R
$$

ILZ033-039-045-046-055>057-062-063-260200-
EAST-CENTRAL ILLINOIS

CITY           SKY/WX    TMP DP  RH WIND       PRES   REMARKS
CHAMPAIGN      CLEAR     63  55  75 N6        29.73R
RANTOUL*       CLEAR     63  57  82 NW3       29.73R
MATTOON        PTCLDY    65  60  84 CALM      29.72R
PARIS*         CLEAR     62  56  81 N3        29.74R
$$

ILZ079-100>102-260200-
SOUTHWEST ILLINOIS

CITY           SKY/WX    TMP DP  RH WIND       PRES   REMARKS
ALTON          CLEAR     68  54  60 W6        29.72R
BELLEVILLE     CLEAR     71  51  48 CALM      29.74R
CAHOKIA*       CLEAR     73  48  41 SW3       29.72R
SPARTA*        CLEAR     72  50  47 CALM      29.74R
$$

ILZ064>066-069>071-074>076-080>082-084>086-088>090-092>094-260200-
SOUTH-CENTRAL ILLINOIS

CITY           SKY/WX    TMP DP  RH WIND       PRES   REMARKS
CARBONDALE     CLEAR     67  53  61 S7        29.74R
CAIRO*         CLEAR     71  52  50 S3        29.75S
EFFINGHAM*     CLEAR     68  56  66 SW3       29.75R
MARION         CLEAR     70  54  56 S3        29.75R
MT. VERNON       N/A     68  52  56 SW3       29.75R
CENTRALIA*     CLEAR     71  55  56 CALM      29.73R
SALEM*         CLEAR     71  53  52 SW5       29.74R
METROPOLIS*    CLEAR     71  51  50 CALM      29.76S
$$

ILZ067-068-072-073-078-083-087-091-260200-
SOUTHEAST ILLINOIS

CITY           SKY/WX    TMP DP  RH WIND       PRES   REMARKS
LAWRENCEVILLE  CLEAR     69  56  62 W3        29.73R
FLORA*         CLEAR     71  53  53 W5        29.74R
FAIRFIELD*     CLEAR     69  54  58 SW5       29.74R
HARRISBURG*    CLEAR     70  54  56 SW3       29.75R
ROBINSON*      CLEAR     65  60  82 NE5       29.73S
CARMI*         CLEAR     68  55  63 SW3       29.74S
$$

ABBREVIATIONS USED IN REMARKS
   TC - TEMPERATURE IN CELSIUS
  WCI - WIND CHILL INDEX
   HX - HEAT INDEX
  VSB - VISIBILITY
$$





USA.gov is the U.S. government's official web portal to all federal, state and local government web resources and services.